FW1757 Weather Reports


time (UTC)temp
C
wind
direction
speed
KPH
gust
KPH
rain 1hr
cm
rain 24hr
cm
rain mn
cm
humidity
%
barometer
mb
20260831024539 21 284 0.0 0.0 0.00 0.00 0.00 46 1013.5
20260831024035 22 275 0.0 0.0 0.00 0.00 0.00 45 1013.5
20260831023535 22 267 0.0 0.0 0.00 0.00 0.00 45 1013.5
20260831023035 22 259 0.0 0.0 0.00 0.00 0.00 44 1013.5
20260831022534 22 234 0.0 0.0 0.00 0.00 0.00 43 1013.5
20260831022034 22 248 0.0 0.0 0.00 0.00 0.00 43 1013.4
20260831021538 22 244 0.0 0.0 0.00 0.00 0.00 42 1013.6
20260831021036 23 275 0.0 0.0 0.00 0.00 0.00 42 1013.5
20260831020534 23 274 0.0 0.0 0.00 0.00 0.00 41 1013.6
20260831020034 23 244 0.0 0.0 0.00 0.00 0.00 40 1013.6
20260831015533 23 225 0.0 0.0 0.00 0.00 0.00 40 1013.4
20260831015034 23 284 0.0 0.0 0.00 0.00 0.00 40 1013.6
20260831014542 24 259 0.0 0.0 0.00 0.00 0.00 39 1013.6
20260831014033 24 294 0.0 0.0 0.00 0.00 0.00 39 1013.5
20260831013532 24 209 0.0 0.0 0.00 0.00 0.00 39 1013.6
20260831013036 24 215 0.0 0.0 0.00 0.00 0.00 39 1013.6
20260831012532 24 259 0.0 0.0 0.00 0.00 0.00 39 1013.6
20260831012032 24 271 0.0 0.0 0.00 0.00 0.00 38 1013.6
20260831011535 24 284 0.0 0.0 0.00 0.00 0.00 38 1013.5
20260831011031 24 258 0.0 0.0 0.00 0.00 0.00 37 1013.6
20260831010531 25 241 0.0 0.0 0.00 0.00 0.00 38 1013.7
20260831010031 25 259 0.0 0.0 0.00 0.00 0.00 37 1013.7
20260831005530 25 253 0.0 0.0 0.00 0.00 0.00 37 1013.7
20260831005033 25 254 0.0 0.0 0.00 0.00 0.00 37 1013.7
20260831004530 25 238 0.0 0.0 0.00 0.00 0.00 37 1013.8
20260831004033 25 192 0.0 0.0 0.00 0.00 0.00 37 1013.7
20260831003530 25 304 0.0 0.0 0.00 0.00 0.00 37 1013.7
20260831003030 25 311 0.0 0.0 0.00 0.00 0.00 37 1013.8
20260831002533 25 271 0.0 0.0 0.00 0.00 0.00 37 1013.8
20260831002028 25 279 0.0 0.0 0.00 0.00 0.00 38 1013.6
20260831001527 25 286 0.0 0.0 0.00 0.00 0.00 37 1013.7
20260831001030 25 245 0.0 0.0 0.00 0.00 0.00 37 1013.8
20260831000527 24 300 0.0 0.0 0.00 0.00 0.00 38 1013.7
20260831000038 24 289 0.0 0.0 0.00 0.00 0.00 38 1013.8
20260830235527 24 272 0.0 0.0 0.00 0.00 0.00 38 1013.7
20260830235028 24 311 0.0 0.0 0.00 0.00 0.00 38 1013.9
20260830234525 24 295 0.0 0.0 0.00 0.00 0.00 38 1014.0
20260830234025 24 259 0.0 0.0 0.00 0.00 0.00 37 1014.0
20260830233530 25 302 0.0 0.0 0.00 0.00 0.00 36 1014.1
20260830233034 25 281 0.0 0.0 0.00 0.00 0.00 36 1014.1
20260830232524 25 256 0.0 0.0 0.00 0.00 0.00 36 1014.3
20260830232025 25 301 0.0 0.0 0.00 0.00 0.00 35 1014.3
20260830231530 25 302 0.0 0.0 0.00 0.00 0.00 33 1014.4
20260830231022 25 269 0.0 0.0 0.00 0.00 0.00 34 1014.3
20260830230522 24 237 0.0 0.0 0.00 0.00 0.00 34 1014.4
20260830230022 25 299 0.0 0.0 0.00 0.00 0.00 33 1014.4
20260830225521 25 321 0.0 0.0 0.00 0.00 0.00 33 1014.6
20260830225020 25 280 0.0 0.0 0.00 0.00 0.00 34 1014.7
20260830224519 25 277 0.0 0.0 0.00 0.00 0.00 35 1014.8
20260830224020 25 275 0.0 0.0 0.00 0.00 0.00 35 1014.8
20260830223519 25 311 0.0 0.0 0.00 0.00 0.00 35 1014.9
20260830223017 25 294 0.0 0.0 0.00 0.00 0.00 34 1015.0
20260830222515 25 307 0.0 0.0 0.00 0.00 0.00 34 1015.1
20260830222019 25 255 0.0 0.0 0.00 0.00 0.00 35 1015.1
20260830221514 24 284 0.0 0.0 0.00 0.00 0.00 36 1015.2
20260830221013 24 269 0.0 0.0 0.00 0.00 0.00 36 1015.3
20260830220512 24 296 0.0 0.0 0.00 0.00 0.00 37 1015.5
20260830220013 23 271 0.0 0.0 0.00 0.00 0.00 37 1015.5
20260830215509 23 294 0.0 0.0 0.00 0.00 0.00 38 1015.5
20260830215013 23 227 0.0 0.0 0.00 0.00 0.00 36 1015.6
20260830214509 23 12 0.0 0.0 0.00 0.00 0.00 37 1015.6
20260830214007 23 350 0.0 0.0 0.00 0.00 0.00 37 1015.7
20260830213506 23 266 0.0 0.0 0.00 0.00 0.00 38 1015.7
20260830213005 23 292 0.0 0.0 0.00 0.00 0.00 39 1015.7
20260830212505 23 263 0.0 0.0 0.00 0.00 0.00 38 1015.8
20260830212005 23 344 0.0 0.0 0.00 0.00 0.00 38 1015.8
20260830211510 23 296 0.0 0.0 0.00 0.00 0.00 38 1015.9
20260830211003 22 301 0.0 0.0 0.00 0.00 0.00 39 1016.0
20260830210502 22 279 0.0 0.0 0.00 0.00 0.00 40 1015.9
20260830210001 22 287 0.0 0.0 0.00 0.00 0.00 40 1015.9
20260830205600 22 267 0.0 0.0 0.00 0.00 0.00 41 1015.9
20260830205101 22 281 0.0 0.0 0.00 0.00 0.00 41 1015.9
20260830204558 22 299 0.0 0.0 0.00 0.00 0.00 41 1016.1
20260830204058 22 290 0.0 0.0 0.00 0.00 0.00 41 1016.1
20260830203556 21 347 0.0 0.0 0.00 0.00 0.00 42 1016.3
20260830203055 21 256 0.0 0.0 0.00 0.00 0.00 42 1016.2
20260830202554 21 306 0.0 0.0 0.00 0.00 0.00 42 1016.4
20260830202053 21 285 0.0 0.0 0.00 0.00 0.00 43 1016.3
20260830201553 21 295 0.0 0.0 0.00 0.00 0.00 43 1016.4
20260830201052 21 256 0.0 0.0 0.00 0.00 0.00 43 1016.6
20260830200554 21 288 0.0 0.0 0.00 0.00 0.00 44 1016.6
20260830200050 21 282 0.0 0.0 0.00 0.00 0.00 45 1016.6
20260830195552 21 290 0.0 0.0 0.00 0.00 0.00 45 1016.7
20260830195051 20 290 0.0 0.0 0.00 0.00 0.00 45 1016.7
20260830194547 20 279 0.0 0.0 0.00 0.00 0.00 45 1016.8
20260830194051 20 280 0.0 0.0 0.00 0.00 0.00 46 1016.8
20260830193543 20 314 0.0 0.0 0.00 0.00 0.00 46 1016.8
20260830193043 20 292 0.0 0.0 0.00 0.00 0.00 47 1016.8
20260830192541 20 296 0.0 0.0 0.00 0.00 0.00 49 1016.8
20260830192041 19 292 0.0 0.0 0.00 0.00 0.00 49 1016.9
20260830191540 19 271 0.0 0.0 0.00 0.00 0.00 48 1016.9
20260830191040 19 306 0.0 0.0 0.00 0.00 0.00 49 1016.9
20260830190539 19 282 0.0 0.0 0.00 0.00 0.00 49 1017.1
20260830190038 18 282 0.0 0.0 0.00 0.00 0.00 50 1017.1
20260830185537 18 304 0.0 0.0 0.00 0.00 0.00 51 1017.2
20260830185036 18 355 0.0 0.0 0.00 0.00 0.00 51 1017.2
20260830184535 18 302 0.0 0.0 0.00 0.00 0.00 52 1017.3
20260830184033 18 299 0.0 0.0 0.00 0.00 0.00 51 1017.3
20260830183534 18 300 0.0 0.0 0.00 0.00 0.00 54 1017.4
20260830183032 18 307 0.0 0.0 0.00 0.00 0.00 52 1017.4
20260830182534 18 313 0.0 0.0 0.00 0.00 0.00 54 1017.4
20260830182031 17 296 0.0 0.0 0.00 0.00 0.00 54 1017.6
20260830181530 17 290 0.0 0.0 0.00 0.00 0.00 54 1017.6
20260830181030 17 311 0.0 0.0 0.00 0.00 0.00 55 1017.6
20260830180532 17 298 0.0 0.0 0.00 0.00 0.00 55 1017.6
20260830180028 17 290 0.0 0.0 0.00 0.00 0.00 56 1017.6
20260830175528 17 310 0.0 0.0 0.00 0.00 0.00 56 1017.6
20260830175027 17 288 0.0 0.0 0.00 0.00 0.00 56 1017.6
20260830174525 17 263 0.0 0.0 0.00 0.00 0.00 57 1017.6
20260830174024 17 298 0.0 0.0 0.00 0.00 0.00 58 1017.6
20260830173525 16 250 0.0 0.0 0.00 0.00 0.00 58 1017.6
20260830173022 16 303 0.0 0.0 0.00 0.00 0.00 59 1017.6
20260830172522 16 290 0.0 0.0 0.00 0.00 0.00 60 1017.6
20260830172021 16 274 0.0 0.0 0.00 0.00 0.00 62 1017.7
20260830171519 16 287 0.0 0.0 0.00 0.00 0.00 63 1017.6
20260830171018 15 296 0.0 0.0 0.00 0.00 0.00 64 1017.7
20260830170522 15 280 0.0 0.0 0.00 0.00 0.00 65 1017.7
20260830170015 15 291 0.0 0.0 0.00 0.00 0.00 65 1017.8
20260830165514 15 287 0.0 0.0 0.00 0.00 0.00 66 1017.8
20260830165014 15 261 0.0 0.0 0.00 0.00 0.00 67 1018.0
20260830164525 15 324 0.0 0.0 0.00 0.00 0.00 67 1018.0
20260830164012 15 302 0.0 0.0 0.00 0.00 0.00 68 1018.1
20260830163511 15 279 0.0 0.0 0.00 0.00 0.00 68 1018.1
20260830163010 15 300 0.0 0.0 0.00 0.00 0.00 68 1018.2
20260830162511 14 225 0.0 0.0 0.00 0.00 0.00 69 1018.2
20260830162011 14 262 0.0 0.0 0.00 0.00 0.00 69 1018.3
20260830161509 14 292 0.0 0.0 0.00 0.00 0.00 69 1018.3
20260830161009 14 280 0.0 0.0 0.00 0.00 0.00 70 1018.3
20260830160509 14 309 0.0 0.0 0.00 0.00 0.00 70 1018.2
20260830160012 13 277 0.0 0.0 0.00 0.00 0.00 71 1018.4
20260830155509 13 281 0.0 0.0 0.00 0.00 0.00 72 1018.4
20260830155009 13 304 0.0 0.0 0.00 0.00 0.00 72 1018.5
20260830154508 13 251 0.0 0.0 0.00 0.00 0.00 72 1018.5
20260830154008 13 254 0.0 0.0 0.00 0.00 0.00 72 1018.5
20260830153507 13 248 0.0 0.0 0.00 0.00 0.00 72 1018.6
20260830153008 13 281 0.0 0.0 0.00 0.00 0.00 71 1018.6
20260830152507 12 236 0.0 0.0 0.00 0.00 0.00 71 1018.6
20260830152007 12 260 0.0 0.0 0.00 0.00 0.00 70 1018.6
20260830151507 12 248 0.0 0.0 0.00 0.00 0.00 70 1018.7
20260830151007 12 290 0.0 0.0 0.00 0.00 0.00 69 1018.6
20260830150508 12 283 0.0 0.0 0.00 0.00 0.00 68 1018.5
20260830150007 12 223 0.0 0.0 0.00 0.00 0.00 68 1018.5
20260830145507 12 259 0.0 0.0 0.00 0.00 0.00 68 1018.6
20260830145009 12 261 0.0 0.0 0.00 0.00 0.00 68 1018.7
20260830144506 12 233 0.0 0.0 0.00 0.00 0.00 67 1018.7
20260830144005 12 238 0.0 0.0 0.00 0.00 0.00 66 1018.7
20260830143507 11 250 0.0 0.0 0.00 0.00 0.00 66 1018.7
20260830143005 11 249 0.0 0.0 0.00 0.00 0.00 66 1018.6
20260830142505 11 213 0.0 0.0 0.00 0.00 0.00 65 1018.6
20260830142005 11 250 0.0 0.0 0.00 0.00 0.00 65 1018.5
20260830141504 11 239 0.0 0.0 0.00 0.00 0.00 65 1018.6
20260830141003 11 281 0.0 0.0 0.00 0.00 0.00 65 1018.4
20260830140504 11 281 0.0 0.0 0.00 0.00 0.00 65 1018.4
20260830140003 11 281 0.0 0.0 0.00 0.00 0.00 64 1018.4
20260830135502 11 288 0.0 0.0 0.00 0.00 0.00 64 1018.3
20260830135002 11 280 0.0 0.0 0.00 0.00 0.00 65 1018.3
20260830134502 11 280 0.0 0.0 0.00 0.00 0.00 65 1018.2
20260830134002 11 267 0.0 0.0 0.00 0.00 0.00 66 1018.2
20260830133502 11 267 0.0 0.0 0.00 0.00 0.00 67 1018.1
20260830133002 11 259 0.0 0.0 0.00 0.00 0.00 67 1018.1
20260830132600 11 263 0.0 0.0 0.00 0.00 0.00 68 1018.2
20260830132059 11 234 0.0 0.0 0.00 0.00 0.00 69 1018.0
20260830131559 11 234 0.0 0.0 0.00 0.00 0.00 68 1018.0
20260830131059 11 280 0.0 0.0 0.00 0.00 0.00 67 1017.8
20260830130559 11 280 0.0 0.0 0.00 0.00 0.00 66 1017.8
20260830130107 11 277 0.0 0.0 0.00 0.00 0.00 65 1017.7
20260830125559 11 242 0.0 0.0 0.00 0.00 0.00 65 1017.7
20260830125057 11 248 0.0 0.0 0.00 0.00 0.00 64 1017.7
20260830124558 11 281 0.0 0.0 0.00 0.00 0.00 63 1017.6
20260830124058 11 275 0.0 0.0 0.00 0.00 0.00 62 1017.6
20260830123558 11 271 0.0 0.0 0.00 0.00 0.00 62 1017.6
20260830123124 11 252 0.0 0.0 0.00 0.00 0.00 63 1017.6
20260830122557 11 252 0.0 0.0 0.00 0.00 0.00 64 1017.7
20260830122100 11 256 0.0 0.0 0.00 0.00 0.00 66 1017.7
20260830121602 11 278 0.0 0.0 0.00 0.00 0.00 67 1017.7
20260830121059 11 278 0.0 0.0 0.00 0.00 0.00 65 1017.6
20260830120556 11 278 0.0 0.0 0.00 0.00 0.00 65 1017.6
20260830120058 10 278 0.0 0.0 0.00 0.00 0.00 66 1017.7
20260830115556 10 233 0.0 0.0 0.00 0.00 0.00 69 1017.7
20260830115057 10 233 0.0 0.0 0.00 0.00 0.00 70 1017.6
20260830114607 10 232 0.0 0.0 0.00 0.00 0.00 72 1017.8
20260830114054 10 232 0.0 0.0 0.00 0.00 0.00 72 1017.7
20260830113552 11 230 0.0 0.0 0.00 0.00 0.00 72 1017.6
20260830113052 11 230 0.0 0.0 0.00 0.00 0.00 73 1017.5
20260830112551 11 230 0.0 0.0 0.00 0.00 0.00 73 1017.6
20260830112051 11 230 0.0 0.0 0.00 0.00 0.00 72 1017.5
20260830111549 11 230 0.0 0.0 0.00 0.00 0.00 72 1017.6
20260830111051 11 229 0.0 0.0 0.00 0.00 0.00 72 1017.6
20260830110548 11 227 0.0 0.0 0.00 0.00 0.00 72 1017.5
20260830110047 11 227 0.0 0.0 0.00 0.00 0.00 72 1017.5
20260830105546 12 277 0.0 0.0 0.00 0.00 0.00 72 1017.6
20260830105045 12 277 0.0 0.0 0.00 0.00 0.00 72 1017.6
20260830104550 12 277 0.0 0.0 0.00 0.00 0.00 72 1017.6
20260830104043 12 277 0.0 0.0 0.00 0.00 0.00 72 1017.5
20260830103543 12 277 0.0 0.0 0.00 0.00 0.00 72 1017.6
20260830103043 12 277 0.0 0.0 0.00 0.00 0.00 72 1017.6
20260830102542 12 277 0.0 0.0 0.00 0.00 0.00 72 1017.6
20260830102041 12 275 0.0 0.0 0.00 0.00 0.00 72 1017.6
20260830101543 12 275 0.0 0.0 0.00 0.00 0.00 72 1017.7
20260830101041 12 275 0.0 0.0 0.00 0.00 0.00 72 1017.6
20260830100541 12 259 0.0 0.0 0.00 0.00 0.00 72 1017.7
20260830100041 12 258 0.0 0.0 0.00 0.00 0.00 72 1017.6
20260830095541 12 267 0.0 0.0 0.00 0.00 0.00 71 1017.6
20260830095042 12 261 0.0 0.0 0.00 0.00 0.00 71 1017.6
20260830094541 12 259 0.0 0.0 0.00 0.00 0.00 71 1017.6
20260830094040 12 274 0.0 0.0 0.00 0.00 0.00 71 1017.6
20260830093539 12 271 0.0 0.0 0.00 0.00 0.00 70 1017.5
20260830093039 12 279 0.0 0.0 0.00 0.00 0.00 69 1017.4
20260830092539 12 281 0.0 0.0 0.00 0.00 0.00 69 1017.4
20260830092039 12 286 0.0 0.0 0.00 0.00 0.00 69 1017.4
20260830091539 12 259 0.0 0.0 0.00 0.00 0.00 69 1017.4
20260830091038 12 251 0.0 0.0 0.00 0.00 0.00 69 1017.5
20260830090537 12 250 0.0 0.0 0.00 0.00 0.00 69 1017.5
20260830090036 13 250 0.0 0.0 0.00 0.00 0.00 68 1017.4
20260830085536 13 250 0.0 0.0 0.00 0.00 0.00 68 1017.4
20260830085035 13 250 0.0 0.0 0.00 0.00 0.00 68 1017.4
20260830084533 13 250 0.0 0.0 0.00 0.00 0.00 68 1017.4
20260830084032 13 250 0.0 0.0 0.00 0.00 0.00 68 1017.5
20260830083532 13 249 0.0 0.0 0.00 0.00 0.00 68 1017.5
20260830083033 13 249 0.0 0.0 0.00 0.00 0.00 69 1017.4
20260830082533 13 275 0.0 0.0 0.00 0.00 0.00 69 1017.5
20260830082030 13 266 0.0 0.0 0.00 0.00 0.00 69 1017.5
20260830081544 13 294 0.0 0.0 0.00 0.00 0.00 69 1017.5
20260830081030 13 246 0.0 0.0 0.00 0.00 0.00 69 1017.5
20260830080530 13 275 0.0 0.0 0.00 0.00 0.00 69 1017.5
20260830080030 13 282 0.0 0.0 0.00 0.00 0.00 68 1017.5
20260830075529 13 285 0.0 0.0 0.00 0.00 0.00 68 1017.5
20260830075029 14 297 0.0 0.0 0.00 0.00 0.00 68 1017.6
20260830074529 14 297 0.0 0.0 0.00 0.00 0.00 68 1017.4
20260830074029 14 281 0.0 0.0 0.00 0.00 0.00 67 1017.6
20260830073527 14 281 0.0 0.0 0.00 0.00 0.00 67 1017.6
20260830073028 14 257 0.0 0.0 0.00 0.00 0.00 66 1017.6
20260830072526 14 272 0.0 0.0 0.00 0.00 0.00 66 1017.4
20260830072026 14 270 0.0 0.0 0.00 0.00 0.00 66 1017.4
20260830071525 14 281 0.0 0.0 0.00 0.00 0.00 65 1017.5
20260830071025 15 262 0.0 0.0 0.00 0.00 0.00 65 1017.4
20260830070523 15 267 0.0 0.0 0.00 0.00 0.00 64 1017.4
20260830070028 15 257 0.0 0.0 0.00 0.00 0.00 64 1017.5
20260830065522 15 258 0.0 0.0 0.00 0.00 0.00 63 1017.5
20260830065024 15 252 0.0 0.0 0.00 0.00 0.00 63 1017.5
20260830064522 15 253 0.0 0.0 0.00 0.00 0.00 63 1017.4
20260830064025 15 277 0.0 0.0 0.00 0.00 0.00 63 1017.4
20260830063521 15 289 0.0 0.0 0.00 0.00 0.00 63 1017.5
20260830063031 15 276 0.0 0.0 0.00 0.00 0.00 63 1017.3
20260830062521 15 289 0.0 0.0 0.00 0.00 0.00 63 1017.4
20260830062024 15 292 0.0 0.0 0.00 0.00 0.00 63 1017.4
20260830061522 15 248 0.0 0.0 0.00 0.00 0.00 63 1017.4
20260830061020 15 238 0.0 0.0 0.00 0.00 0.00 63 1017.3
20260830060524 15 215 0.0 0.0 0.00 0.00 0.00 63 1017.5
20260830060022 15 245 0.0 0.0 0.00 0.00 0.00 62 1017.5
20260830055520 15 254 0.0 0.0 0.00 0.00 0.00 61 1017.4
20260830055020 15 214 0.0 0.0 0.00 0.00 0.00 61 1017.5
20260830054529 15 214 0.0 0.0 0.00 0.00 0.00 61 1017.6
20260830054020 16 211 0.0 0.0 0.00 0.00 0.00 60 1017.6
20260830053519 16 257 0.0 0.0 0.00 0.00 0.00 60 1017.6
20260830053120 16 257 0.0 0.0 0.00 0.00 0.00 60 1017.6
20260830052518 16 247 0.0 0.0 0.00 0.00 0.00 60 1017.5
20260830052019 16 252 0.0 0.0 0.00 0.00 0.00 59 1017.6
20260830051517 16 263 0.0 0.0 0.00 0.00 0.00 59 1017.6
20260830051018 16 225 0.0 0.0 0.00 0.00 0.00 59 1017.5
20260830050518 16 267 0.0 0.0 0.00 0.00 0.00 59 1017.5
20260830050015 16 270 0.0 0.0 0.00 0.00 0.00 59 1017.5
20260830045516 16 298 0.0 0.0 0.00 0.00 0.00 59 1017.4
20260830045015 16 275 0.0 0.0 0.00 0.00 0.00 58 1017.4
20260830044514 16 285 0.0 0.0 0.00 0.00 0.00 58 1017.3
20260830044015 16 296 0.0 0.0 0.00 0.00 0.00 57 1017.3
20260830043515 16 311 0.0 0.0 0.00 0.00 0.00 57 1017.3
20260830043014 16 299 0.0 0.0 0.00 0.00 0.00 57 1017.2
20260830042515 16 291 0.0 0.0 0.00 0.00 0.00 57 1017.2
20260830042017 16 292 0.0 0.0 0.00 0.00 0.00 57 1017.1
20260830041514 16 287 0.0 0.0 0.00 0.00 0.00 57 1017.0
20260830041011 16 283 0.0 0.0 0.00 0.00 0.00 57 1016.9
20260830040511 16 303 0.0 0.0 0.00 0.00 0.00 58 1016.8
20260830040011 16 288 0.0 0.0 0.00 0.00 0.00 58 1016.8
20260830035513 16 308 0.0 0.0 0.00 0.00 0.00 59 1016.7
20260830035010 16 320 0.0 0.0 0.00 0.00 0.00 59 1016.7
20260830034517 16 298 0.0 0.0 0.00 0.00 0.00 59 1016.6
20260830034009 16 277 0.0 0.0 0.00 0.00 0.00 59 1016.6
20260830033508 17 266 0.0 0.0 0.00 0.00 0.00 59 1016.5
20260830033009 17 284 0.0 0.0 0.00 0.00 0.00 58 1016.4
20260830032508 17 281 0.0 0.0 0.00 0.00 0.00 58 1016.4
20260830032008 17 223 0.0 0.0 0.00 0.00 0.00 59 1016.4
20260830031508 17 267 0.0 0.0 0.00 0.00 0.00 59 1016.4
20260830031012 17 284 0.0 0.0 0.00 0.00 0.00 59 1016.4
20260830030507 17 277 0.0 0.0 0.00 0.00 0.00 58 1016.3
20260830030008 17 277 0.0 0.0 0.00 0.00 0.00 58 1016.4
20260830025508 17 265 0.0 0.0 0.00 0.00 0.00 58 1016.3